Location: Unspecified
(43.4680°N, 87.1740°E)
Time: 05:20:35
(UTC+00:00)

USA 215 - Pass Details

Date: 17 April 2021
Orbit: 1101 x 1107 km, 123.0° (Epoch: 15 May)

Event Time Altitude Azimuth Distance (km) Brightness Sun altitude
Exits shadow 14:20:55 18° 100° (E) 2,414 4.5 -14.8°
Maximum altitude 14:25:42 53° 30° (NNE) 1,328 3.7 -15.6°
Drops below altitude 10° 14:32:01 10° 316° (NW) 2,964 6.8 -16.5°
Sets 14:34:33 0° 312° (NW) 3,924 7.9 -16.9°
